Hourly Data Report for December 25, 2011

HALIFAX STANFIELD INT'L A
NOVA SCOTIA

44°52'48.060" N
63°30'00.050" W
145.40 m
8202250
71395
YHZ

Download Data

Hourly Data (December 2011)
Hourly Data Report for December 25, 2011
TIME
LST
Temp Definition
°C
Dew Point Definition
°C
Rel Hum Definition
%
Precip. Amount Definition
mm

Wind Dir Definition
10's deg

Wind Spd Definition
km/h
Visibility Definition
km
Stn Press Definition
kPa
Hmdx Definition


Wind Chill Definition


Weather Definition


00:00 -13.2 -15.1 86   33 15 24.1 101.16   -21 Mainly Clear
01:00 -13.4 -14.9 88   34 11 24.1 101.11   -20 Mainly Clear
02:00 -13.8 -15.1 90   36 4 24.1 101.13   -17 Snow Showers
03:00 -13.5 -14.8 90   36 4 24.1 101.16   -16 Mostly Cloudy
04:00 -12.3 -14.0 87   32 9 24.1 101.16   -18 Snow Showers
05:00 -11.9 -13.6 87   31 11 24.1 101.17   -18 Snow Showers
06:00 -12.1 -13.7 88   32 7 24.1 101.17   -16 Mostly Cloudy
07:00 -12.7 -14.3 88   35 6 24.1 101.21   -17 Mostly Cloudy
08:00 -12.7 -14.3 88     0 24.1 101.18     Mostly Cloudy
09:00 -12.1 -13.6 89   25 7 24.1 101.25   -16 Cloudy
10:00 -11.3 -13.0 87     0 24.1 101.23     Cloudy
11:00 -9.9 -12.5 81   34 4 24.1 101.15   -12 Mainly Clear
12:00 -8.9 -12.2 77     0 24.1 101.03     Mainly Clear
13:00 -6.8 -11.3 70   18 9 24.1 100.91   -11 Mostly Cloudy
14:00 -7.1 -11.5 71   21 15 24.1 100.85   -13 Mainly Clear
15:00 -7.6 -11.7 72   21 9 24.1 100.83   -12 Mainly Clear
16:00 -8.6 -11.9 77   22 11 24.1 100.80   -14 Mainly Clear
17:00 -10.9 -12.5 88   15 9 24.1 100.73   -16 Mainly Clear
18:00 -11.6 -12.9 90   15 9 24.1 100.69   -17 Mainly Clear
19:00 -11.7 -13.1 89   16 9 24.1 100.63   -17 Mostly Cloudy
20:00 -10.1 -11.4 90   18 6 24.1 100.56   -14 Mostly Cloudy
21:00 -10.9 -12.4 89   13 15 24.1 100.44   -18 Mainly Clear
22:00 -10.7 -11.9 91   14 15 24.1 100.34   -18 Mainly Clear
23:00 -10.3 -11.5 91   13 17 24.1 100.24   -18 Mostly Cloudy

Notes on Data Quality.

Legend

  • E = Estimated
  • M = Missing
  • NA = Not Available*
  • [empty] = Indicates an unobserved value
Date modified: